Location: *
(34.6903°N, 135.5184°E)
Time: 02:43:20
(UTC+00:00)

CENTAUR R/B - Pass Details

Date: 22 September 2019
Orbit: 780 x 1408 km, 63.4° (Epoch: 08 October)

Event Time Altitude Azimuth Distance (km) Brightness Sun altitude
Exits shadow 18:17:46 24° 334° (NNW) 1,927 4.0 -30.4°
Drops below altitude 10° 18:22:03 10° 11° (N) 2,911 5.3 -29.6°
Sets 18:25:28 0° 23° (NNE) 3,989 6.3 -29.0°
